Theta_e
293 295 296 296 296 296 296 296 297 300 300 299 300 298 297 297 298 297 298 299 301 301 303 303 304 305 306 305 306 304 303 303 303 305 304 306 308 304 308 308 304 304 304 305 306 307 308 300 302 304 299 296 294 292
294 295 296 295 295 296 295 299 299 299 299 298 298 297 297 296 297 297 298 299 300 301 301 300 300 300 301 303 305 305 304 304 305 304 303 304 307 308 308 308 306 309 307 309 305 304 298 297 296 295 297 295 293 291
294 294 295 296 295 296 297 298 297 297 297 296 296 296 295 294 295 297 297 300 300 302 302 301 301 299 300 301 303 303 302 303 303 306 310 307 307 306 308 308 306 304 304 304 303 299 296 295 294 294 294 292 291 291
294 294 296 294 297 298 297 297 296 296 296 295 295 294 295 295 296 297 297 300 301 302 302 300 299 300 300 300 301 303 303 302 303 305 308 308 307 307 308 307 307 304 304 303 301 298 296 295 294 292 291 290 290 289
293 294 294 293 297 296 296 295 294 293 294 296 296 296 296 297 297 297 297 300 300 302 302 300 300 299 300 300 300 300 301 304 304 303 307 307 305 306 306 307 305 304 305 304 307 300 300 296 293 292 291 290 290 289
293 293 292 297 296 296 296 294 293 295 295 296 296 296 296 296 295 298 302 299 300 300 301 301 300 300 300 301 301 302 302 303 302 303 303 304 305 305 307 307 302 302 302 302 301 300 296 294 293 292 291 291 290 290
293 293 296 296 296 295 294 293 294 295 295 295 295 295 295 295 298 299 301 299 299 301 306 301 300 300 300 301 302 302 302 302 303 301 301 302 303 303 306 306 301 300 299 299 297 295 293 293 292 292 291 290 289 289
293 295 296 295 294 294 293 293 294 295 295 294 293 295 296 297 297 298 295 296 301 303 304 303 302 300 300 301 302 302 302 302 303 303 301 301 302 302 305 302 300 297 297 296 296 297 295 294 292 291 290 289 289 288
295 297 296 295 293 293 293 294 295 295 294 294 295 296 297 298 299 297 294 296 300 302 303 302 301 302 302 302 303 302 302 305 301 303 302 301 304 303 304 300 298 297 296 296 296 295 294 293 292 291 290 290 289 288
297 296 295 294 293 293 293 295 295 294 293 294 295 298 301 298 295 295 300 302 303 300 302 303 303 302 302 304 303 303 302 303 303 302 302 302 304 302 302 299 298 297 296 295 296 295 294 292 291 291 290 290 289 288
296 295 294 293 293 293 293 293 294 293 292 296 298 298 296 296 299 299 302 301 300 300 301 302 301 302 302 304 303 302 302 302 301 304 301 302 302 301 300 298 297 297 296 296 296 295 294 293 292 291 291 290 288 287
295 295 294 294 293 294 293 293 293 293 296 296 297 296 298 299 299 300 299 299 300 299 301 303 303 303 302 302 302 301 301 301 302 303 302 301 301 299 299 298 297 296 295 295 295 295 294 292 291 290 288 287 283 280
295 294 294 294 294 293 291 291 293 293 295 297 298 298 298 297 300 300 299 299 302 301 303 304 304 302 301 302 302 301 302 303 302 302 302 302 299 298 297 296 295 295 294 295 294 293 291 290 289 287 283 281 280 279
294 294 294 294 293 292 290 292 294 295 296 297 297 297 300 299 299 301 303 302 301 303 304 305 303 304 303 302 301 301 302 301 301 303 304 299 297 297 295 294 294 294 293 293 291 288 286 285 283 281 281 280 278 277
294 294 292 292 290 291 291 292 294 297 297 297 298 298 298 298 299 299 299 300 300 303 303 303 302 301 300 299 300 300 300 300 302 305 301 298 295 294 294 293 292 291 290 289 287 285 283 281 281 280 278 278 277 276
293 292 292 291 291 291 292 294 295 296 296 296 297 298 299 300 299 299 300 300 300 302 303 302 302 302 301 301 300 300 302 303 303 297 296 294 293 292 291 290 289 288 287 286 283 282 281 280 280 280 278 276 276 276
294 293 291 291 291 291 293 295 295 295 296 297 297 296 299 300 299 298 300 300 300 302 304 300 300 300 300 300 301 301 303 300 295 294 293 293 292 290 289 287 286 285 284 283 282 281 280 280 278 277 277 276 276 276
293 292 291 291 293 293 295 295 295 295 296 298 298 297 298 298 298 297 297 298 301 300 300 301 301 299 300 300 304 301 296 293 293 292 292 291 289 287 286 285 285 284 283 282 281 281 280 278 280 279 278 278 278 278
293 291 291 291 293 294 295 295 296 294 296 296 297 297 296 295 295 295 295 298 299 299 299 299 298 300 302 302 300 296 294 294 292 290 289 288 287 286 285 284 284 284 283 282 282 281 280 281 281 280 280 279 280 279
291 291 291 293 295 294 295 295 294 295 296 295 295 294 295 296 296 296 297 297 298 298 298 298 300 300 300 297 297 296 294 293 290 289 288 287 286 285 284 284 284 283 283 283 283 282 281 283 281 281 280 281 282 281
293 293 293 295 294 294 295 295 294 294 293 294 293 294 294 294 295 296 297 296 297 298 299 300 299 295 293 294 295 295 295 295 294 294 290 287 286 286 285 286 284 284 284 283 283 282 283 283 282 282 282 283 282 281
292 293 294 293 295 294 294 294 294 293 294 293 294 295 295 295 295 295 295 295 295 299 298 297 296 294 293 294 293 295 293 292 292 292 290 288 288 287 286 285 285 285 285 284 283 283 284 283 283 282 282 281 280 278
293 293 293 293 294 294 294 295 294 294 294 293 293 294 294 294 295 294 294 294 296 296 295 295 293 294 292 291 291 291 291 291 292 291 289 289 288 287 286 285 286 286 285 285 284 284 285 283 282 282 280 280 278 277
292 293 293 294 294 293 293 294 294 293 293 295 295 295 294 294 292 294 295 298 295 294 293 291 292 293 293 291 292 291 290 292 290 289 289 288 288 287 286 285 286 286 285 285 284 285 283 283 282 280 280 279 278 277
293 292 294 293 293 294 294 294 294 295 295 294 295 295 294 293 294 295 295 298 295 293 292 290 291 292 294 294 291 289 288 291 290 289 288 288 287 286 286 285 285 285 285 285 285 284 283 282 281 280 280 280 279 278
293 293 294 294 294 294 294 294 294 294 295 295 294 294 293 294 295 296 297 296 294 292 292 291 291 291 291 291 291 290 289 289 289 288 288 287 287 287 286 286 286 285 285 285 284 283 282 281 281 280 280 279 278 276
292 293 293 293 294 293 294 295 294 294 294 295 295 294 294 295 297 298 295 293 292 289 289 289 290 291 291 289 288 287 287 286 288 287 286 285 285 286 286 285 285 284 284 284 283 282 281 281 280 280 278 276 276 275
293 293 293 293 293 293 294 295 294 294 295 295 295 294 295 297 299 295 293 289 287 287 287 287 287 288 288 286 285 284 283 283 283 283 283 283 283 284 285 284 284 283 283 283 282 281 281 280 279 277 276 275 274 273
293 293 293 292 293 293 294 295 295 295 295 296 296 296 296 296 293 292 289 288 287 287 287 286 286 285 285 284 284 283 282 283 283 283 283 283 282 281 282 283 282 282 282 282 281 281 280 278 277 276 273 272 271 269
293 292 292 292 293 294 295 292 294 291 291 292 292 293 293 292 288 287 288 287 287 287 288 287 285 285 285 284 284 283 283 284 285 285 286 284 283 280 281 280 280 280 279 278 278 277 277 275 274 272 270 269 268 267
292 291 292 293 293 294 290 288 288 288 289 290 289 291 294 292 289 286 286 286 286 287 287 286 285 286 286 286 284 283 284 283 283 284 285 283 281 280 279 279 278 277 276 276 275 274 273 271 270 269 268 268 266 265
290 291 292 292 293 289 287 289 290 290 291 290 292 290 289 290 292 286 279 282 284 285 285 286 286 285 285 285 285 284 284 282 282 282 281 281 280 279 278 277 276 275 274 273 272 271 271 270 270 270 268 266 266 264
291 291 292 292 291 290 289 289 290 291 290 290 291 290 290 290 292 283 278 278 279 280 282 284 284 285 284 284 283 283 283 282 281 281 280 280 279 278 277 276 275 274 273 272 272 271 271 270 268 267 266 265 263 262
Wind_Speed
18 18 13 11 11 12 20 23 22 22 30 32 38 36 33 29 25 21 6 8 5 2 8 9 4 3 10 4 8 11 6 4 4 6 5 3 2 2 4 2 9 7 5 6 6 8 5 8 3 3 5 7 8 6
15 13 11 11 16 18 20 20 28 28 37 37 32 29 30 26 21 17 3 7 7 3 3 13 15 13 8 4 7 10 3 11 5 6 4 1 2 1 6 5 2 2 2 2 5 3 5 8 10 5 5 9 8 8
13 12 13 13 10 12 16 29 29 29 30 31 29 26 26 22 21 16 6 7 5 3 4 3 4 9 9 7 7 4 2 4 1 2 1 0 2 4 5 3 5 4 5 3 6 6 6 7 8 8 9 10 9 9
11 10 9 6 10 28 30 29 28 27 27 25 24 22 23 23 21 19 11 8 1 1 3 5 5 5 6 5 6 7 9 3 4 3 1 1 1 4 3 4 3 2 7 9 5 7 8 6 7 10 11 10 11 11
8 7 11 6 26 28 26 25 24 25 23 20 20 19 22 19 22 16 11 8 3 3 3 6 11 9 8 10 10 9 8 6 4 3 1 2 3 3 2 4 5 3 3 4 1 14 2 12 10 11 11 11 11 12
6 9 7 20 28 26 24 23 24 22 20 19 18 19 21 21 18 7 2 8 7 14 2 4 4 5 7 8 8 5 1 1 1 2 2 3 2 2 2 2 2 7 6 3 4 10 12 12 11 11 12 11 11 12
8 5 7 24 24 23 22 23 23 21 20 17 18 20 19 20 15 2 2 4 4 3 2 4 4 2 2 2 2 3 1 1 1 1 2 3 3 2 2 3 8 9 9 12 15 17 11 14 8 11 13 14 15 15
4 14 25 23 24 24 24 24 23 19 18 17 18 20 21 14 13 4 2 9 5 1 2 2 4 4 5 3 3 2 2 2 3 2 1 1 3 2 2 6 12 11 10 10 12 0 13 12 15 13 16 15 12 11
16 26 26 26 25 24 24 24 23 21 20 23 24 22 12 5 3 4 7 6 2 2 1 3 6 4 2 2 2 1 2 1 0 1 1 1 3 2 7 12 13 12 8 10 6 13 15 14 14 13 12 12 11 10
27 32 29 27 25 24 24 23 23 23 23 17 8 4 3 3 11 7 1 2 1 1 2 3 4 4 4 2 1 2 2 2 3 2 3 1 2 4 10 12 11 11 11 11 12 12 12 13 12 12 11 9 11 11
33 33 32 28 24 23 23 23 20 18 7 3 2 2 6 7 2 1 2 2 2 2 2 4 6 6 5 3 3 1 2 0 2 3 2 3 3 6 8 12 9 8 10 9 10 11 10 10 10 9 9 12 14 14
34 31 30 27 23 23 22 21 19 5 3 4 9 11 3 1 1 2 2 1 4 3 3 6 7 6 2 1 2 1 1 1 1 2 1 2 4 10 9 9 9 9 6 6 13 12 13 13 12 13 13 14 18 18
36 33 29 27 25 25 22 14 5 7 14 6 3 3 2 1 2 4 5 3 4 3 2 6 5 2 2 4 2 1 1 1 1 2 2 3 8 8 9 10 11 10 10 8 11 14 17 16 17 17 17 19 19 16
33 30 25 25 23 19 14 12 11 3 4 2 3 3 1 3 1 3 5 4 2 3 5 6 3 2 2 3 1 1 2 2 2 3 2 5 7 7 8 9 10 10 9 10 12 18 18 19 19 20 18 18 18 15
30 28 26 22 19 17 13 8 5 3 3 3 3 3 3 2 4 3 3 4 2 4 5 4 3 3 2 2 1 2 2 3 3 3 2 6 9 7 9 10 10 10 10 9 14 14 16 17 17 17 15 15 17 18
32 26 20 17 18 13 8 7 5 3 2 3 4 2 3 5 4 4 4 3 2 2 4 3 2 2 2 4 3 3 2 2 3 2 3 7 9 8 9 9 8 11 12 13 13 15 15 16 16 17 16 16 17 16
15 8 16 15 12 7 5 4 4 4 3 3 3 2 2 5 4 3 2 1 2 1 0 2 2 1 1 2 4 1 2 2 3 3 3 6 9 9 9 10 11 13 14 14 15 15 16 17 19 17 15 13 13 13
22 17 14 11 5 5 7 5 3 2 4 4 3 4 5 4 3 3 2 4 2 1 2 3 3 2 1 2 2 3 3 3 3 4 5 7 8 12 11 11 12 13 15 15 16 17 17 17 16 14 16 16 14 12
18 13 9 5 4 2 2 3 3 3 4 3 3 4 4 2 2 2 1 3 3 4 1 3 1 1 2 3 3 4 4 4 5 5 5 9 11 12 13 13 13 14 15 16 18 15 16 16 14 16 15 15 12 12
17 12 8 7 3 1 3 3 4 3 3 3 3 3 2 2 2 0 1 1 2 1 2 1 2 2 2 3 2 4 5 7 7 7 6 5 10 12 13 13 13 15 15 15 14 16 15 13 15 15 15 13 13 12
11 7 9 7 6 10 4 3 3 2 3 3 2 2 2 2 2 2 2 3 1 2 1 3 3 4 4 4 4 7 5 6 5 5 8 7 11 12 13 11 16 14 13 13 13 13 13 13 14 15 12 11 13 13
3 6 4 7 5 4 4 7 3 2 2 3 2 1 2 2 2 1 1 1 1 1 2 2 3 4 4 4 3 5 7 8 8 12 15 16 7 7 9 14 13 11 13 14 14 14 13 15 17 16 14 14 14 12
4 5 5 5 3 4 2 2 2 1 2 3 2 2 2 1 1 1 1 2 1 2 3 2 4 6 7 7 7 8 7 7 6 8 11 10 11 13 12 14 13 13 12 13 15 15 15 18 18 18 17 14 15 11
6 4 4 3 4 2 1 1 1 3 2 2 2 2 2 1 0 1 2 1 2 3 2 2 3 3 4 5 4 5 5 7 12 8 8 12 9 10 12 12 12 13 14 15 17 15 18 18 18 18 16 15 14 14
1 3 2 3 1 1 2 2 2 2 2 2 1 1 2 1 1 1 1 2 2 2 1 1 2 2 0 2 5 8 1 6 9 6 6 11 12 11 11 11 12 12 14 18 18 18 17 18 17 16 15 14 14 14
3 2 3 1 0 0 2 2 2 2 2 1 1 2 1 1 1 2 1 2 2 1 2 2 2 2 1 2 3 4 5 3 8 8 7 11 13 12 10 8 9 10 15 17 20 19 18 17 17 17 14 14 13 14
1 1 1 1 2 1 1 1 2 2 2 2 3 2 1 2 2 2 2 3 2 3 3 4 5 3 4 8 10 10 8 6 6 10 10 9 8 8 13 12 11 13 16 18 19 20 19 17 18 16 16 14 12 12
1 2 1 2 2 1 2 2 4 3 3 1 3 3 2 1 2 2 2 5 6 6 5 5 6 6 8 11 12 11 9 12 17 16 15 13 11 11 11 12 14 18 17 20 20 20 20 19 19 19 17 15 13 12
2 1 2 3 2 2 2 2 2 2 3 2 1 2 1 3 2 2 5 6 7 7 7 7 6 6 8 8 8 7 11 11 10 8 8 6 7 7 12 18 20 18 17 18 19 20 21 21 20 20 19 17 14 12
3 4 3 3 2 3 2 4 2 2 3 3 2 1 2 2 3 2 4 5 5 4 5 6 9 8 8 9 8 7 8 8 7 7 5 7 10 14 15 17 18 19 21 23 25 25 24 24 23 21 20 17 14 12
3 4 3 4 2 2 3 2 1 1 1 0 1 1 2 2 3 2 0 1 2 3 5 6 6 7 9 9 10 9 7 7 4 3 10 18 21 21 19 19 20 21 22 23 25 23 23 20 19 18 17 15 14 13
4 5 4 4 2 2 1 1 1 2 2 2 2 2 1 2 2 2 3 2 2 3 4 4 6 7 7 7 8 9 7 11 12 12 15 18 20 21 21 22 22 20 19 20 19 21 19 19 18 17 17 15 14 13
3 3 0 0 2 2 2 2 3 2 2 3 1 1 1 2 2 2 3 3 3 6 8 3 4 8 10 8 9 8 11 13 13 13 16 19 22 23 23 21 19 21 21 21 20 19 19 18 18 17 16 16 14 13
Wind_Direction
306 316 293 245 267 266 256 254 239 206 188 191 173 172 180 182 183 184 225 245 282 310 53 86 81 121 182 139 150 154 148 176 173 204 216 181 229 172 105 320 174 190 195 206 244 223 195 10 227 284 91 96 94 78
305 314 302 288 288 271 237 165 159 151 148 148 161 169 168 171 173 176 202 234 225 271 68 72 55 36 55 5 208 158 177 171 170 212 223 144 180 110 143 169 140 165 55 71 12 56 92 63 86 98 85 107 103 108
306 311 309 306 286 182 178 144 137 142 150 157 165 164 165 168 175 180 190 222 184 168 92 49 22 17 32 38 41 186 149 108 167 12 332 147 173 183 181 133 135 143 174 88 187 125 112 102 96 104 102 111 111 105
310 309 287 257 190 133 139 143 144 147 152 155 160 166 165 174 187 185 211 200 292 142 129 71 72 51 41 67 71 60 92 108 125 248 219 252 139 34 45 134 126 113 149 127 86 116 121 130 128 123 117 114 110 112
309 306 297 250 133 137 141 142 144 148 146 143 144 146 161 171 176 191 239 212 263 308 114 120 88 65 80 93 105 116 135 162 185 181 198 160 102 86 106 119 111 84 121 188 327 160 58 140 144 136 130 127 128 119
298 308 237 146 142 145 143 143 142 140 137 139 148 163 167 179 174 161 94 217 218 233 139 122 108 99 93 94 91 92 85 343 2 42 53 74 76 143 156 99 106 93 80 87 94 95 108 132 141 138 134 136 122 119
306 216 121 150 145 146 145 140 136 132 135 146 158 163 166 169 163 213 188 135 154 61 102 121 130 136 9 134 133 129 94 15 1 119 40 119 155 247 160 150 156 105 102 106 111 110 126 145 144 139 139 126 124 119
278 167 152 149 146 145 144 139 135 134 141 135 135 135 141 147 145 152 74 133 110 186 207 124 96 148 213 188 124 281 126 151 351 68 200 187 117 276 103 141 120 118 123 136 148 128 148 136 139 136 136 137 129 123
160 154 152 147 146 144 142 139 144 144 137 127 121 129 143 211 141 105 128 118 100 277 144 153 156 138 180 79 111 142 325 93 17 206 154 233 144 205 141 157 140 149 156 146 152 129 139 142 136 142 141 142 131 128
150 152 147 147 145 142 142 140 140 135 128 131 144 148 125 77 124 127 188 104 352 342 305 149 96 130 146 162 52 110 320 170 171 164 86 291 81 125 141 150 139 166 147 159 141 147 145 145 147 150 149 142 135 133
144 138 139 139 137 141 142 143 142 140 139 176 86 75 108 135 205 81 130 171 160 165 169 109 136 130 160 158 152 44 167 128 244 128 226 185 183 138 118 142 143 141 152 159 159 146 147 145 142 144 136 122 125 130
144 140 140 140 140 142 141 141 141 155 80 67 109 114 127 134 148 123 141 146 236 134 169 153 145 122 110 103 91 223 182 203 289 193 238 234 102 121 130 126 131 128 130 142 142 143 140 137 130 116 113 108 97 107
135 135 134 138 137 137 138 132 139 151 124 143 140 81 157 75 157 197 163 196 132 139 198 124 107 123 146 62 37 100 82 153 254 197 218 62 130 117 124 122 122 119 103 124 126 119 117 111 114 114 100 111 114 114
138 136 142 132 133 135 135 129 127 96 279 93 119 103 289 156 142 26 37 77 82 151 132 99 54 67 83 56 291 145 79 236 249 236 105 143 139 127 126 127 124 119 105 106 104 102 102 100 97 106 115 124 127 123
133 129 129 134 133 131 118 112 116 19 43 49 28 66 68 75 64 71 98 110 17 124 120 133 145 101 98 109 140 82 173 228 238 34 63 127 123 115 119 118 112 115 116 115 116 112 110 113 114 114 122 129 133 137
125 119 125 133 135 132 96 74 71 63 46 60 38 108 133 112 106 94 84 71 13 161 149 116 159 102 162 142 171 210 270 17 72 67 100 121 121 116 119 116 117 125 130 129 124 124 125 127 132 132 126 134 140 143
118 118 138 126 128 115 45 92 58 46 45 39 61 317 54 68 64 67 87 120 230 164 95 114 97 83 169 216 170 115 24 70 112 102 103 127 134 126 122 122 127 127 129 132 131 132 132 128 126 131 133 143 139 140
115 128 123 115 108 106 55 54 73 77 61 43 70 51 48 50 74 54 5 354 325 76 23 48 336 68 213 202 103 88 108 90 86 115 113 113 114 122 127 131 134 135 133 134 136 138 135 147 149 145 143 146 138 140
123 118 113 70 52 26 84 55 24 78 62 77 79 83 82 87 78 81 44 319 338 35 102 152 134 189 67 57 90 100 132 143 131 112 101 113 130 135 134 138 137 136 140 146 151 153 159 160 151 148 151 152 149 158
120 105 68 66 24 74 73 67 30 67 82 75 65 49 41 50 83 310 280 4 18 344 206 176 43 48 43 42 35 108 135 118 129 132 128 127 133 139 145 152 150 149 152 155 153 152 159 150 140 150 158 169 159 161
97 42 32 38 48 46 51 82 69 87 91 68 116 126 90 84 50 25 44 6 327 274 66 69 98 92 53 17 68 116 129 147 159 161 162 159 165 154 162 154 145 161 159 162 155 165 162 148 150 151 152 134 133 125
83 42 38 31 45 52 56 22 84 84 67 103 141 46 110 121 127 153 83 199 242 23 38 33 93 145 152 137 119 116 135 91 90 105 127 140 162 156 167 154 168 168 167 164 166 159 160 155 145 145 139 125 123 117
55 29 38 36 71 50 50 318 85 13 103 124 157 127 124 123 55 219 241 232 148 50 34 54 88 63 104 116 115 122 141 148 134 119 138 156 156 158 158 163 178 168 165 169 164 165 153 145 146 138 135 139 125 128
37 46 33 37 37 82 278 27 128 101 108 180 134 127 95 108 45 228 261 102 87 147 138 149 229 155 148 157 160 139 160 110 103 131 147 135 139 151 158 167 174 173 170 165 158 153 145 145 142 141 150 147 149 158
31 28 357 67 323 129 116 119 334 92 123 163 113 101 111 162 243 231 253 109 93 88 134 183 217 289 318 77 84 98 164 154 148 152 153 157 148 149 154 164 167 172 172 158 155 148 147 149 148 155 164 163 158 153
66 24 2 59 304 294 133 138 157 190 110 131 112 57 136 241 238 239 76 67 61 158 152 179 195 192 168 73 140 144 156 158 138 142 162 157 162 165 165 163 165 167 168 164 154 152 154 156 161 156 162 153 155 144
116 105 121 12 339 53 44 353 76 126 174 196 143 170 195 243 207 92 115 43 89 84 102 87 56 50 120 112 100 98 102 83 104 127 117 120 143 168 171 170 171 158 162 160 156 155 156 164 153 153 136 137 148 152
33 182 170 168 188 263 281 198 179 198 210 164 133 193 217 291 38 77 82 115 125 128 117 104 68 77 106 116 119 115 111 116 112 109 100 87 87 98 133 155 153 158 165 163 161 158 160 155 149 144 145 146 140 145
189 135 163 192 239 188 240 233 224 149 6 124 187 200 172 58 56 99 130 143 145 149 143 143 122 119 112 120 142 149 156 157 152 157 157 146 139 109 125 135 136 146 146 142 147 152 152 151 146 143 138 136 138 138
162 160 205 174 220 236 84 7 48 27 1 25 324 247 167 100 90 92 142 157 176 183 172 169 160 167 164 164 158 160 177 186 197 197 184 166 159 153 147 135 132 133 131 132 134 133 142 144 145 138 136 138 141 139
108 178 209 210 220 79 58 10 323 276 305 320 28 281 357 45 127 82 137 359 198 177 169 175 179 199 184 181 173 174 172 181 166 112 146 150 153 153 153 151 149 148 154 152 146 147 147 140 139 143 147 148 151 149
187 196 206 210 166 112 162 241 258 254 200 237 213 184 244 235 236 111 25 354 225 215 221 231 203 197 199 192 190 184 181 174 165 148 138 145 150 154 152 152 157 160 150 144 148 147 145 144 147 148 146 148 148 152
209 190 201 145 193 215 170 223 214 222 194 234 214 35 7 334 345 88 60 44 36 27 27 98 102 151 167 166 151 148 153 160 159 150 151 160 159 157 158 155 153 150 146 143 144 146 145 145 143 145 147 150 153 153